Location: Ferintosh
(52.7647°N, 112.9692°W)
Time: 23:16:16
(UTC+00:00)

Vanguard 1 Rocket - Pass Details

Date: 20 May 2024
Orbit: 649 x 4221 km, 34.3° (Epoch: 13 June)

Event Time Altitude Azimuth Distance (km) Brightness Sun altitude
Rises 16:10:52 0° 213° (SSW) 8,083 12.1 40.1°
Reaches altitude 10° 16:18:41 10° 201° (SSW) 6,570 11.9 41.2°
Maximum altitude 16:31:39 22° 160° (SSE) 4,406 11.8 43.0°
Drops below altitude 10° 16:40:27 10° 115° (ESE) 4,331 11.9 44.2°
Sets 16:44:08 0° 101° (E) 4,846 11.8 44.6°
